Location: Newark
(51.3318°N, 0.0053°E)
Time: 15:58:05
(UTC+00:00)

DIWATA 2B (PO-101) - Pass Details

Date: 08 July 2022
Orbit: 583 x 599 km, 98.0° (Epoch: 07 August)

Event Time Altitude Azimuth Distance (km) Brightness Sun altitude
Exits shadow 02:38:31 12° 210° (SSW) 1,835 ? -8.9°
Maximum altitude 02:41:48 27° 266° (W) 1,173 ? -8.6°
Drops below altitude 10° 02:45:24 10° 324° (NW) 1,949 ? -8.2°
Sets 02:47:52 0° 337° (NNW) 2,856 ? -8.0°
